Temperature
25 26 27 27 27 27 27 26 25 25 26 26 25 25 25 24 24 23 23 23 22 21 20 19 17 16 16 15 14 14 13 13 12 12 12 12 11 11 11 11 11 11 11 11
24 26 26 27 27 27 27 27 26 25 25 25 24 23 23 22 22 23 22 22 22 21 20 19 17 16 16 15 14 14 13 13 13 12 12 12 11 11 11 11 11 11 11 11
23 25 25 25 27 27 26 26 25 23 23 23 23 22 22 21 22 22 21 21 21 20 20 19 17 16 16 15 14 14 13 13 13 12 12 12 12 11 11 11 11 11 11 11
23 23 23 25 27 27 25 24 23 22 22 21 21 20 21 21 20 20 20 20 20 19 19 19 18 16 16 15 14 14 13 13 13 12 12 12 12 11 11 11 11 11 11 12
23 23 24 26 25 24 23 22 19 20 20 19 19 19 20 19 18 18 18 18 19 19 19 18 18 17 16 15 14 14 14 13 13 13 12 12 12 12 11 11 11 11 11 12
22 21 21 21 23 23 23 20 17 17 17 17 17 17 17 16 16 16 16 17 17 17 18 18 17 17 16 15 14 14 14 14 13 13 12 12 12 12 11 11 11 11 11 12
21 21 22 19 20 21 19 15 14 15 15 15 15 14 15 15 14 14 15 15 15 16 16 17 17 16 15 15 14 14 14 14 13 13 12 12 12 12 11 11 11 11 11 11
22 21 18 15 16 14 12 12 12 12 12 12 12 12 12 13 13 13 13 13 14 14 14 15 16 16 15 15 14 14 14 13 13 13 12 12 12 12 11 11 11 11 11 11
19 15 11 10 10 9 9 9 9 10 10 10 10 10 10 10 11 11 12 12 12 12 12 14 14 15 15 14 14 13 13 13 13 13 12 12 12 12 11 11 11 11 11 10
17 13 12 10 9 9 9 9 9 9 9 9 9 9 9 9 10 10 10 11 11 11 11 12 13 13 14 14 14 13 13 13 12 12 12 12 12 12 11 11 11 11 11 11
14 11 11 11 9 9 9 9 9 9 10 10 10 10 10 10 10 9 9 10 10 10 10 11 11 12 13 13 13 13 13 12 12 12 12 12 12 12 11 11 11 11 11 11
11 9 9 9 9 9 9 9 9 10 10 10 11 11 11 10 10 10 9 9 9 10 10 10 10 11 11 12 13 12 12 12 12 12 12 12 11 11 11 11 12 12 12 11
8 8 8 8 9 9 9 10 10 11 11 11 11 11 11 10 10 10 9 9 9 9 9 9 9 10 10 11 12 12 12 12 12 12 12 12 11 11 11 11 11 11 11 11
9 8 9 10 10 11 11 11 12 12 12 12 11 11 11 10 10 10 9 9 9 9 9 9 9 9 10 10 11 11 12 12 12 12 12 12 12 11 11 11 11 11 11 11
10 10 11 11 11 12 12 12 12 12 12 11 11 11 11 10 10 10 9 9 9 9 9 9 8 9 9 9 10 11 11 12 12 12 12 12 12 12 11 11 11 10 10 10
11 11 12 12 12 12 12 12 12 11 11 11 11 10 10 10 9 9 9 9 8 8 8 8 8 8 9 9 9 10 11 12 12 12 12 13 13 12 12 11 11 10 10 10
11 12 11 11 11 11 11 11 11 10 10 10 10 9 9 9 9 8 8 8 8 8 8 8 8 8 8 8 8 9 11 11 12 12 12 13 13 13 12 12 11 11 10 10
11 11 11 10 10 10 10 10 9 9 9 9 8 8 8 7 7 7 7 7 7 7 7 8 8 8 8 8 8 9 10 11 12 12 12 13 13 13 13 12 12 11 11 10
10 10 10 10 9 9 9 9 8 8 8 7 7 7 6 6 6 6 6 6 6 6 7 7 8 8 8 8 8 8 10 11 12 12 12 12 13 13 13 12 12 12 11 11
10 10 9 9 9 8 8 8 8 7 7 6 6 5 5 4 4 4 4 5 5 6 6 7 7 8 8 8 8 8 9 11 12 12 12 12 12 12 12 12 12 12 12 11
9 9 9 9 8 8 8 8 7 6 6 5 4 4 3 3 3 3 3 4 5 5 6 7 7 8 8 8 8 8 9 11 12 12 12 12 12 12 13 13 13 12 12 12
9 9 9 9 8 8 8 7 7 6 5 4 4 3 3 3 3 3 3 3 4 5 6 7 7 8 8 7 8 8 9 10 11 12 12 12 13 12 13 13 13 13 13 13
9 9 9 9 8 8 8 7 6 5 4 3 3 2 2 2 3 3 3 4 4 5 6 7 7 8 8 8 8 8 9 10 11 11 12 12 13 13 13 13 13 13 13 13
9 9 9 9 8 8 7 7 6 5 4 3 3 3 2 3 3 3 3 4 4 5 6 7 7 8 8 8 8 8 9 10 10 11 12 12 13 13 13 13 13 13 13 13
9 9 8 8 8 7 7 6 5 4 3 3 3 3 3 3 3 4 4 4 5 5 6 7 8 8 8 8 8 8 9 9 10 11 12 12 13 13 13 13 13 13 13 13
8 8 8 8 7 6 6 5 4 3 3 3 3 3 3 4 4 5 5 5 5 6 7 7 8 8 8 8 8 8 9 9 10 11 12 12 13 13 13 13 13 13 13 13
8 7 7 7 6 5 5 4 3 3 2 3 3 3 4 5 5 5 6 6 6 7 8 8 8 8 8 8 8 8 9 9 10 11 12 12 13 13 13 13 13 13 13 13
Wind_Speed
16 18 20 21 20 18 17 17 17 18 18 16 14 14 13 13 13 13 11 9 6 4 2 2 4 4 5 5 4 3 3 2 3 3 3 4 4 4 4 4 4 4 4 4
18 19 21 21 18 17 15 13 13 15 15 15 15 15 16 16 17 16 13 11 8 6 4 3 5 5 6 5 5 4 4 4 4 6 6 5 3 2 1 1 1 1 1 2
17 19 19 16 13 9 7 9 12 14 14 15 15 16 16 16 17 16 14 12 10 8 5 4 5 5 5 5 5 6 5 5 5 8 8 7 5 4 2 1 1 1 3 6
14 17 16 11 9 8 6 8 14 14 15 17 17 17 16 14 15 16 16 14 12 9 7 5 5 6 6 7 6 6 6 6 6 8 9 9 7 5 4 3 3 2 4 7
11 14 14 11 10 9 7 6 17 16 17 19 20 19 15 19 21 18 17 15 12 10 10 6 6 7 7 8 7 8 8 7 7 9 10 10 9 7 5 4 4 4 5 7
11 15 15 10 14 11 8 2 18 18 18 19 20 16 15 21 22 22 20 17 15 13 11 7 7 7 8 9 9 8 8 7 8 9 10 11 11 9 6 5 5 5 6 7
13 15 6 13 15 13 7 9 19 19 19 20 17 16 19 22 21 21 20 20 18 15 12 8 7 8 10 10 9 8 7 7 7 9 10 11 10 9 8 7 7 6 7 7
10 12 3 18 11 8 8 13 16 18 19 19 20 21 22 23 23 23 22 22 21 17 14 12 9 9 11 11 9 7 7 7 8 10 11 12 11 11 10 9 8 7 7 7
5 5 7 12 10 8 10 11 13 14 17 18 19 20 22 22 22 22 22 21 20 19 18 15 12 11 14 11 9 8 8 8 8 10 10 10 13 13 11 10 10 9 9 9
4 8 6 9 10 9 9 10 12 13 15 15 17 18 19 19 19 20 20 19 19 19 19 17 16 15 13 11 10 10 9 8 8 9 10 10 10 11 11 12 11 10 10 9
4 7 8 8 12 13 14 15 16 17 17 17 18 19 19 17 16 17 19 18 18 18 18 18 17 18 15 12 11 11 10 9 10 11 10 10 11 8 10 9 9 9 8 9
4 5 8 12 13 16 17 19 20 21 22 21 21 21 21 19 16 15 17 17 18 19 19 18 17 16 16 12 12 12 11 11 11 11 10 10 10 7 7 5 8 11 10 10
5 8 11 15 18 19 20 22 23 23 23 23 22 21 21 19 18 18 17 17 17 19 19 19 18 16 16 13 12 13 12 11 11 12 11 12 11 11 8 6 9 10 12 14
10 12 16 18 20 22 23 25 25 26 25 24 23 22 21 20 19 20 19 19 18 18 18 18 18 17 15 15 13 14 15 14 13 12 12 13 12 13 12 12 9 6 7 14
12 15 19 22 23 24 25 25 26 26 25 24 23 22 22 21 21 21 20 19 18 17 17 18 18 16 13 14 14 15 16 13 13 12 11 12 12 13 13 14 13 12 9 7
18 20 22 24 26 27 27 28 27 26 25 25 23 22 22 22 21 22 21 20 19 19 17 16 16 15 12 12 15 12 14 17 15 13 12 11 11 12 12 12 13 13 13 12
21 23 25 26 27 27 28 27 27 26 26 25 24 24 23 23 23 22 21 20 19 19 19 17 16 14 11 10 13 11 13 16 16 14 12 12 11 11 11 12 12 12 14 16
22 23 24 25 25 26 27 27 26 26 25 25 26 24 23 23 24 24 23 23 22 22 21 19 16 13 11 9 10 11 11 14 15 15 12 10 10 11 11 12 14 14 12 15
23 24 25 25 26 25 25 26 26 26 25 24 25 24 23 23 23 23 23 23 24 23 20 17 16 13 11 10 10 10 11 13 14 14 12 12 12 12 11 12 13 13 13 15
24 25 26 26 26 26 26 25 25 24 24 24 25 24 24 24 23 23 23 22 20 19 19 17 16 12 10 9 8 9 11 11 13 14 13 13 13 12 12 13 13 14 13 15
26 27 27 27 27 27 26 25 24 25 24 23 23 23 24 24 23 22 21 20 21 20 19 17 13 10 8 6 7 8 10 10 10 13 13 13 13 13 13 12 13 13 13 14
26 26 28 27 27 27 25 23 23 23 22 23 24 25 24 24 23 21 21 18 19 19 16 14 11 9 6 5 5 7 9 8 8 11 12 12 12 13 13 12 12 13 12 12
25 26 27 27 27 26 26 24 23 21 22 24 25 25 23 21 18 16 17 16 15 16 14 12 10 9 8 6 5 6 7 7 7 9 11 12 12 12 12 13 11 11 11 12
25 26 26 26 25 25 25 24 23 21 23 24 22 23 22 18 15 14 15 16 16 18 14 12 11 11 10 6 5 5 6 6 6 7 11 12 12 13 13 12 12 11 11 13
25 25 26 25 23 21 21 22 24 24 23 21 23 23 19 15 15 14 13 14 15 15 13 12 13 14 10 7 7 6 5 6 6 6 8 10 11 13 13 13 12 11 11 11
23 22 21 19 18 17 18 19 19 19 20 21 21 19 18 15 14 12 11 12 14 14 12 8 8 10 9 8 8 7 6 6 8 8 8 8 11 12 13 14 15 12 11 10
23 20 17 19 20 19 19 19 19 20 21 21 23 21 19 15 12 10 9 9 9 9 9 8 8 9 9 8 8 8 7 8 8 9 8 7 8 9 11 13 12 11 11 11
Wind_Direction
292 297 296 292 289 288 285 284 287 296 305 326 353 356 357 351 339 326 317 306 302 306 294 268 275 271 262 261 248 251 249 228 174 154 129 107 82 58 40 33 26 6 15 32
290 291 293 291 288 286 286 293 308 320 327 360 7 5 0 351 338 325 316 314 319 323 304 263 254 262 257 241 230 230 240 236 184 172 162 150 138 117 69 13 17 6 14 71
292 298 300 293 300 297 302 331 342 336 346 3 2 360 352 339 333 336 339 342 338 325 301 259 239 242 250 245 228 225 231 233 195 183 177 174 175 174 186 186 172 194 118 93
285 291 285 291 338 340 331 10 10 359 2 3 354 345 332 340 359 350 341 333 326 314 298 265 233 221 228 239 235 226 227 228 205 190 186 180 185 184 182 171 166 160 118 106
285 287 291 318 26 16 350 24 27 9 1 354 346 334 332 353 346 335 328 319 305 296 285 258 231 221 225 231 237 235 228 218 205 192 187 182 184 183 180 176 176 161 130 122
273 286 294 355 8 352 315 301 19 3 357 352 350 338 331 338 333 331 329 325 319 310 297 267 228 213 221 231 233 236 234 216 199 187 185 185 183 181 178 178 180 168 147 141
260 268 269 21 7 355 334 349 357 357 355 353 347 332 327 331 332 330 327 327 325 318 308 285 242 213 217 229 232 233 227 206 191 185 185 184 180 179 178 184 184 174 156 153
292 289 322 16 34 41 360 351 356 354 351 345 337 332 331 330 330 329 328 329 330 329 322 304 264 226 218 222 225 227 220 203 190 185 190 186 180 183 186 185 179 171 163 160
23 70 77 48 55 32 9 359 352 343 338 335 330 328 327 327 326 325 326 328 329 327 324 320 300 249 227 218 213 220 214 202 190 189 194 177 177 182 184 184 183 177 175 174
72 81 74 57 30 10 354 335 323 319 316 316 313 312 313 315 316 318 319 322 325 325 324 323 321 297 245 217 206 213 211 201 189 190 186 176 178 181 183 185 188 183 182 179
24 9 348 354 349 335 325 318 312 308 304 301 298 298 299 300 304 308 311 314 317 319 320 322 324 320 286 233 208 210 207 200 193 191 188 180 181 183 193 190 191 184 183 175
351 346 317 309 312 311 308 305 303 302 301 301 301 301 302 302 302 303 306 311 313 313 316 318 320 318 310 268 223 210 207 201 196 192 187 182 174 152 59 107 137 152 158 158
287 288 286 288 290 291 291 292 295 296 298 300 300 301 302 302 302 301 301 305 309 310 310 312 314 315 316 300 249 219 209 201 196 193 188 185 179 170 152 93 80 103 127 133
284 284 287 292 296 298 297 298 299 299 299 299 300 301 301 299 299 300 302 302 300 300 301 304 307 310 316 317 274 229 214 205 197 196 189 187 183 181 176 170 162 139 111 132
295 291 293 297 299 302 304 304 304 303 304 304 304 303 303 301 300 300 301 300 299 295 296 297 299 303 308 318 296 242 216 209 201 198 192 187 183 183 182 181 180 171 149 139
306 305 305 308 310 312 312 312 312 311 311 310 309 308 306 302 299 299 301 302 301 298 296 294 292 297 304 312 307 262 220 212 200 198 193 189 186 185 184 181 182 177 171 166
315 317 319 320 319 318 318 318 316 315 314 313 312 311 308 305 302 300 300 300 298 295 293 289 287 288 293 299 306 272 224 210 201 198 195 191 190 189 185 184 183 180 178 173
322 321 321 320 319 318 317 316 316 315 314 313 313 312 310 306 303 301 299 299 297 294 290 287 283 281 283 286 293 285 238 208 200 201 195 191 189 189 186 184 185 185 181 170
326 324 322 321 320 317 316 316 315 314 313 313 311 309 307 305 304 303 301 298 294 292 288 285 281 276 277 279 285 282 253 214 194 194 196 188 190 193 190 187 188 189 180 169
324 322 322 321 319 318 315 314 314 313 312 312 311 309 307 303 301 299 296 291 285 284 285 284 280 273 272 275 280 275 261 226 194 188 195 197 194 194 193 191 190 192 184 173
322 322 321 320 318 316 315 315 314 313 313 313 310 307 304 301 298 295 291 287 283 282 282 278 269 263 262 266 270 266 258 235 201 185 192 197 193 194 196 195 192 193 191 182
321 320 318 317 317 316 316 315 314 315 317 315 311 307 303 299 296 291 283 279 278 276 275 271 261 250 239 247 255 255 252 238 211 189 188 196 194 192 196 198 195 194 194 189
319 318 317 318 317 318 317 318 320 322 320 316 311 306 301 297 293 286 284 279 276 273 271 267 255 227 211 227 242 246 249 236 219 201 192 194 196 193 195 199 198 196 194 193
319 320 320 319 320 320 322 324 325 324 319 314 309 305 302 299 293 281 275 272 265 268 267 259 231 212 212 231 232 236 242 237 227 215 200 194 196 194 196 200 201 198 196 194
321 322 322 324 325 326 326 326 327 324 320 317 312 310 306 297 289 286 280 276 270 266 261 246 214 203 211 229 226 227 235 233 228 227 211 197 195 195 194 199 201 200 198 198
326 323 324 324 327 327 328 328 326 321 319 317 316 314 310 304 293 283 272 268 264 258 255 246 214 205 216 222 221 220 229 236 229 228 225 207 200 197 195 196 198 201 201 202
326 327 327 329 330 331 330 327 322 320 319 317 317 315 312 307 299 289 277 268 264 257 250 240 223 210 213 213 210 210 219 230 231 223 221 217 207 198 194 190 195 197 200 203
Height
1494 1487 1482 1480 1477 1474 1475 1476 1481 1477 1474 1469 1468 1469 1470 1472 1472 1472 1471 1471 1470 1470 1470 1470 1470 1469 1468 1467 1466 1465 1464 1462 1459 1458 1456 1455 1454 1453 1453 1453 1454 1454 1455 1456
1495 1486 1479 1475 1469 1467 1468 1469 1471 1473 1474 1470 1472 1474 1475 1475 1474 1472 1470 1468 1468 1467 1467 1467 1466 1466 1465 1464 1463 1462 1461 1460 1458 1457 1456 1456 1456 1456 1456 1456 1457 1458 1458 1459
1498 1485 1481 1481 1467 1465 1467 1469 1475 1480 1479 1476 1477 1478 1478 1477 1475 1472 1469 1468 1467 1466 1465 1464 1463 1462 1461 1460 1460 1459 1458 1458 1457 1456 1455 1456 1457 1457 1458 1459 1460 1461 1462 1463
1497 1493 1499 1476 1462 1463 1469 1475 1480 1480 1481 1482 1483 1482 1480 1478 1476 1474 1472 1469 1466 1464 1462 1460 1458 1457 1457 1456 1456 1455 1455 1455 1454 1454 1454 1455 1456 1458 1459 1460 1462 1463 1464 1466
1498 1495 1484 1471 1472 1474 1478 1484 1491 1489 1488 1487 1485 1482 1479 1478 1477 1475 1471 1468 1464 1460 1457 1455 1453 1453 1452 1452 1452 1451 1451 1451 1451 1451 1451 1453 1455 1457 1459 1461 1463 1464 1466 1468
1497 1501 1500 1490 1480 1479 1481 1487 1498 1495 1493 1491 1487 1485 1483 1482 1478 1473 1469 1464 1460 1455 1452 1449 1448 1447 1447 1447 1447 1447 1447 1447 1447 1447 1448 1450 1452 1455 1458 1460 1463 1465 1466 1469
1496 1496 1486 1497 1489 1486 1495 1507 1504 1500 1497 1495 1493 1492 1486 1481 1476 1471 1466 1460 1455 1450 1446 1443 1442 1441 1440 1440 1441 1441 1442 1443 1443 1444 1445 1447 1450 1453 1456 1459 1462 1464 1466 1469
1487 1491 1499 1505 1499 1508 1515 1511 1507 1504 1501 1497 1494 1489 1484 1479 1473 1468 1462 1456 1451 1445 1440 1437 1435 1433 1432 1433 1434 1436 1437 1438 1439 1440 1442 1444 1447 1450 1453 1456 1460 1463 1465 1468
1493 1508 1517 1514 1514 1516 1514 1510 1507 1504 1501 1496 1492 1487 1482 1476 1471 1465 1459 1453 1448 1442 1436 1431 1428 1427 1424 1425 1428 1430 1431 1432 1434 1436 1438 1440 1443 1446 1450 1453 1457 1460 1463 1466
1498 1511 1514 1514 1514 1512 1510 1508 1504 1500 1495 1491 1486 1481 1476 1471 1465 1461 1455 1450 1444 1439 1432 1426 1422 1419 1417 1418 1421 1423 1425 1427 1429 1431 1434 1436 1439 1443 1446 1449 1453 1457 1460 1463
1505 1513 1512 1510 1511 1509 1505 1501 1497 1493 1489 1484 1479 1474 1469 1464 1460 1455 1450 1445 1440 1435 1429 1423 1417 1412 1410 1411 1413 1416 1418 1421 1423 1426 1429 1432 1436 1439 1443 1447 1450 1453 1457 1460
1516 1518 1517 1512 1508 1504 1500 1496 1492 1487 1482 1478 1474 1468 1463 1458 1454 1449 1445 1440 1435 1430 1425 1419 1413 1408 1404 1404 1406 1408 1411 1414 1417 1420 1424 1428 1432 1436 1440 1444 1447 1451 1454 1458
1519 1516 1514 1509 1504 1501 1496 1491 1485 1480 1475 1470 1466 1461 1457 1452 1447 1443 1439 1434 1430 1424 1419 1414 1409 1404 1400 1399 1398 1401 1404 1407 1411 1414 1418 1423 1427 1431 1435 1440 1443 1447 1451 1454
1516 1513 1509 1504 1499 1494 1489 1483 1478 1472 1467 1462 1457 1453 1449 1444 1440 1436 1432 1428 1423 1418 1413 1408 1404 1399 1395 1392 1391 1393 1398 1401 1405 1408 1412 1417 1422 1426 1430 1434 1438 1443 1447 1451
1511 1508 1503 1496 1491 1486 1480 1475 1469 1463 1458 1453 1449 1445 1441 1436 1432 1428 1424 1420 1415 1410 1406 1402 1398 1394 1391 1386 1383 1386 1390 1394 1398 1403 1407 1412 1416 1421 1426 1430 1434 1438 1442 1446
1506 1501 1496 1490 1484 1478 1473 1467 1461 1455 1450 1445 1441 1437 1433 1429 1424 1419 1416 1412 1407 1402 1398 1394 1390 1388 1385 1380 1377 1378 1383 1387 1392 1397 1402 1406 1411 1416 1420 1425 1429 1434 1437 1440
1500 1494 1489 1483 1478 1472 1467 1462 1456 1450 1444 1439 1434 1429 1425 1420 1415 1410 1407 1403 1399 1394 1390 1386 1383 1380 1378 1374 1371 1371 1375 1381 1386 1391 1396 1400 1405 1410 1415 1419 1424 1428 1432 1435
1498 1492 1487 1481 1474 1468 1462 1456 1450 1444 1438 1432 1427 1422 1416 1412 1406 1401 1397 1392 1388 1383 1380 1378 1375 1373 1371 1368 1365 1363 1368 1373 1379 1384 1390 1395 1400 1405 1409 1414 1419 1423 1428 1431
1493 1488 1482 1476 1470 1464 1457 1450 1444 1438 1431 1425 1419 1412 1407 1402 1397 1391 1387 1382 1377 1373 1370 1368 1366 1365 1363 1361 1358 1356 1360 1365 1372 1378 1384 1389 1394 1399 1404 1409 1414 1419 1423 1425
1488 1482 1476 1470 1464 1458 1451 1444 1437 1430 1423 1416 1409 1402 1395 1390 1385 1380 1375 1370 1366 1363 1360 1359 1357 1356 1355 1354 1352 1350 1352 1358 1364 1371 1378 1383 1389 1394 1399 1404 1409 1413 1418 1421
1483 1476 1470 1463 1457 1450 1443 1436 1428 1420 1413 1406 1399 1391 1384 1377 1372 1367 1361 1356 1353 1352 1351 1349 1348 1348 1348 1347 1346 1345 1347 1352 1359 1365 1371 1378 1383 1389 1394 1399 1403 1408 1412 1416
1477 1470 1464 1456 1449 1441 1434 1428 1420 1411 1403 1395 1388 1380 1372 1364 1357 1352 1348 1345 1342 1341 1341 1341 1341 1341 1341 1341 1340 1340 1343 1347 1354 1360 1366 1372 1378 1383 1389 1394 1398 1403 1408 1412
1471 1464 1457 1450 1442 1434 1426 1419 1411 1403 1394 1385 1376 1367 1359 1351 1345 1340 1335 1333 1332 1332 1333 1333 1334 1335 1336 1336 1336 1336 1339 1343 1349 1355 1362 1368 1373 1379 1384 1389 1394 1398 1403 1407
1465 1458 1451 1443 1435 1427 1418 1411 1403 1394 1385 1375 1365 1356 1348 1340 1333 1329 1326 1324 1323 1324 1325 1327 1328 1330 1331 1331 1332 1333 1336 1340 1345 1351 1358 1364 1369 1374 1380 1385 1389 1394 1398 1403
1460 1453 1445 1438 1430 1421 1414 1404 1395 1385 1375 1365 1355 1345 1338 1331 1325 1320 1318 1317 1317 1318 1320 1322 1323 1325 1326 1327 1328 1330 1333 1337 1342 1348 1354 1360 1365 1370 1375 1380 1385 1390 1394 1398
1455 1448 1441 1434 1427 1419 1410 1400 1390 1379 1368 1357 1346 1337 1329 1322 1318 1314 1312 1312 1312 1314 1316 1318 1319 1321 1322 1324 1325 1328 1331 1335 1340 1345 1350 1356 1361 1366 1371 1376 1381 1385 1390 1394
1451 1444 1437 1430 1422 1415 1406 1397 1386 1374 1363 1352 1341 1330 1322 1316 1312 1310 1309 1309 1310 1311 1313 1315 1316 1317 1319 1321 1323 1326 1329 1333 1338 1343 1348 1353 1358 1363 1367 1372 1376 1381 1385 1389